DateTimeUTC,F1_A11,F1_S11,BsB_S11,BsG_S11,BsR_S11,BbsB_S11,BbsG_S11,BbsR_S11,BaB_A11,BaG_A11,BaR_A11,Tu_S11,T_S11,Uu_S11,U_S11,P_S11,T1_A11
2021-08-20T08:00:00Z,00000200,20000000,,,,,,,-000.43,-000.13,0000.20,19.1,25.9,10.9,07.2,0675.0,31.1
2021-08-20T08:01:00Z,00000200,20000000,,,,,,,0000.24,0000.03,-000.03,19.1,25.9,10.9,07.2,0675.0,31.0
2021-08-20T08:02:00Z,00000200,20000000,,,,,,,0000.25,0000.29,0000.09,19.1,25.9,10.9,07.2,0675.0,31.1
2021-08-20T08:03:00Z,00000200,60000000,,,,,,,0000.18,0000.09,0000.07,19.1,26.0,11.0,07.2,0675.0,31.1
2021-08-20T08:04:00Z,00000200,40000000,0001.79,0001.78,0000.68,0000.30,0000.15,-000.08,0000.17,0000.39,0000.46,19.3,25.8,10.7,07.2,0675.9,31.1
2021-08-20T08:05:00Z,00000200,00000000,0001.77,0001.97,0000.97,0000.37,0000.18,0000.15,0000.88,0000.55,0000.40,19.3,25.8,10.7,07.3,0676.0,31.0
2021-08-20T08:06:00Z,00000200,00000000,0001.82,0001.52,0000.87,0000.77,0000.14,0000.10,0000.57,0000.51,0000.08,19.3,25.8,10.7,07.2,0676.0,31.1
2021-08-20T08:07:00Z,00000200,00000000,0002.02,0001.87,0001.28,0000.38,0000.19,0000.17,0000.10,0000.13,0000.39,19.3,25.7,10.8,07.3,0676.0,31.1
2021-08-20T08:08:00Z,00000200,00000000,0001.84,0001.64,0001.26,0000.27,0000.29,0000.29,0000.69,0000.64,0000.32,19.3,25.7,10.8,07.4,0676.0,31.1
2021-08-20T08:09:00Z,00000200,00000000,0001.70,0001.71,0001.41,0000.60,0000.18,0000.30,0000.63,0000.71,0000.38,19.4,25.7,10.9,07.4,0676.0,31.1
2021-08-20T08:10:00Z,00000200,00000000,0001.59,0001.33,0000.57,0000.62,0000.16,-000.05,0000.42,0000.33,0000.79,19.4,25.7,10.9,07.4,0676.0,31.1
2021-08-20T08:11:00Z,00000200,00000000,0001.59,0001.54,0001.00,0000.05,0000.06,0000.16,0000.49,0000.20,0000.20,19.4,25.7,10.9,07.4,0676.0,31.1
2021-08-20T08:12:00Z,00000200,00000000,0001.37,0001.19,0000.90,0000.29,0000.44,0000.22,0000.55,0000.59,0000.20,19.4,25.7,10.9,07.4,0676.0,31.1
2021-08-20T08:13:00Z,00000200,00000000,0002.34,0001.50,0000.72,0000.21,0000.30,-000.10,0000.61,0000.45,0000.51,19.3,25.7,11.0,07.5,0676.0,31.1
2021-08-20T08:14:00Z,00000200,00000000,0001.94,0001.42,0000.84,0000.40,0000.20,0000.01,0000.34,0000.53,0000.47,19.4,25.7,11.0,07.5,0676.0,31.1
2021-08-20T08:15:00Z,00000200,00000000,0001.55,0001.40,0000.93,0000.55,0000.01,0000.32,0000.41,0000.66,0000.12,19.3,25.7,11.0,07.5,0676.0,31.1
2021-08-20T08:16:00Z,00000200,00000000,0002.08,0001.33,0000.89,0000.32,0000.31,0000.03,0000.37,0000.43,0000.27,19.4,25.7,11.1,07.6,0676.0,31.1
2021-08-20T08:17:00Z,00000200,00000000,0001.19,0001.42,0000.49,0000.34,0000.26,-000.08,0000.71,0000.26,0000.25,19.3,25.7,11.1,07.6,0676.0,31.1
2021-08-20T08:18:00Z,00000200,00000000,0003.18,0001.75,0000.89,-000.11,0000.45,0000.04,0000.78,0000.77,0000.89,19.4,25.7,11.2,07.6,0676.0,31.1
2021-08-20T08:19:00Z,00000200,00000000,0001.17,0001.43,0001.08,0000.49,0000.46,0000.17,0000.32,0000.23,0000.20,19.3,25.7,11.1,07.5,0676.0,31.0
2021-08-20T08:20:00Z,00000200,00000000,0002.18,0002.10,0001.41,0000.09,0000.49,0000.42,0000.64,0000.47,0000.37,19.4,25.7,11.1,07.5,0676.0,31.1
2021-08-20T08:21:00Z,00000200,00000000,0002.09,0001.93,0000.95,0000.60,0000.15,0000.19,0000.30,0000.54,0000.25,19.3,25.7,11.1,07.6,0676.0,31.1
2021-08-20T08:22:00Z,00000200,00000000,0002.44,0001.95,0001.18,0001.11,0000.30,0000.36,0000.87,0000.93,0000.61,19.4,25.7,11.1,07.6,0676.0,31.1
2021-08-20T08:23:00Z,00000200,00000000,0003.27,0002.14,0001.26,0000.42,0000.19,0000.35,0000.91,0000.35,0000.60,19.4,25.7,11.2,07.6,0676.0,31.1
2021-08-20T08:24:00Z,00000200,00000000,0002.99,0002.24,0001.33,0000.55,0000.28,0000.24,0000.53,0000.82,0000.27,19.4,25.7,11.2,07.6,0676.0,31.0
2021-08-20T08:25:00Z,00000200,00000000,0002.22,0002.40,0001.70,-000.01,0000.32,-000.10,0000.76,0000.56,0000.88,19.4,25.7,11.4,07.7,0676.0,31.0
2021-08-20T08:26:00Z,00000200,00000000,0001.80,0001.70,0000.94,0000.01,0000.47,-000.39,0000.29,0000.50,-000.18,19.4,25.7,11.3,07.7,0676.0,31.0
2021-08-20T08:27:00Z,00000200,00000000,0001.83,0001.39,0000.91,0000.16,0000.34,0000.23,0000.71,0000.33,0000.43,19.4,25.7,11.3,07.7,0676.0,31.1
2021-08-20T08:28:00Z,00000200,00000000,0000.66,0001.13,0000.71,0000.24,0000.18,0000.11,0000.43,0000.43,0000.30,19.4,25.7,11.1,07.6,0676.0,31.1
2021-08-20T08:29:00Z,00000200,00000000,0001.04,0001.13,0000.68,-000.86,0000.26,-000.28,0000.50,0000.19,0000.15,19.4,25.7,11.2,07.6,0676.0,31.1
2021-08-20T08:30:00Z,00000200,00000000,0001.23,0001.06,0000.59,-000.03,0000.02,0000.27,0000.28,0000.41,0000.31,19.4,25.7,11.1,07.6,0676.0,31.1
2021-08-20T08:31:00Z,00000200,00000000,0001.47,0001.35,0000.65,0000.27,0000.15,0000.12,-000.15,0000.06,0000.13,19.4,25.7,11.1,07.6,0676.0,31.0
2021-08-20T08:32:00Z,00000200,00000000,0001.40,0000.86,0000.73,0000.18,0000.36,-000.11,0000.44,0000.51,0000.16,19.4,25.7,11.2,07.6,0676.0,31.1
2021-08-20T08:33:00Z,00000200,00000000,0001.24,0001.06,0000.56,0000.43,0000.16,-000.26,0000.55,-000.00,0000.37,19.4,25.7,11.1,07.6,0676.0,31.1
2021-08-20T08:34:00Z,00000200,00000000,0001.02,0001.24,0000.74,0000.16,0000.44,0000.10,0000.54,0000.96,0000.42,19.4,25.7,11.2,07.7,0676.0,31.1
2021-08-20T08:35:00Z,00000200,00000000,0002.57,0001.18,0000.70,0000.51,0000.24,-000.19,0000.21,-000.08,0000.44,19.4,25.7,11.2,07.6,0676.1,31.1
2021-08-20T08:36:00Z,00000200,00000000,0001.02,0001.39,0001.10,0000.49,0000.12,0000.29,0000.53,0000.59,0000.20,19.4,25.7,11.2,07.6,0676.1,31.1
2021-08-20T08:37:00Z,00000200,00000000,0002.02,0001.53,0001.09,0000.59,0000.29,0000.01,0000.53,0000.48,0000.49,19.4,25.7,11.2,07.6,0676.1,31.0
2021-08-20T08:38:00Z,00000200,00000000,0001.56,0001.16,0000.91,0000.37,0000.52,0000.57,0000.28,0000.57,-000.14,19.4,25.7,11.2,07.6,0676.1,31.0
2021-08-20T08:39:00Z,00000200,00000000,0001.51,0001.26,0000.95,0000.47,0000.32,0000.14,0000.54,0000.19,0000.78,19.4,25.7,11.2,07.6,0676.0,31.0
2021-08-20T08:40:00Z,00000200,00000000,0002.15,0001.54,0000.87,0000.88,0000.46,0000.13,0000.59,0000.64,0000.23,19.4,25.7,11.2,07.7,0676.0,31.0
2021-08-20T08:41:00Z,00000200,00000000,0001.83,0001.58,0001.09,0000.08,0000.17,0000.11,0000.51,0000.02,0000.37,19.4,25.7,11.2,07.7,0676.0,31.0
2021-08-20T08:42:00Z,00000200,00000000,0001.79,0001.59,0000.89,0000.42,0000.39,0000.30,0000.38,0000.76,0000.44,19.4,25.7,11.1,07.6,0676.0,31.0
2021-08-20T08:43:00Z,00000200,00000000,0006.73,0005.82,0005.61,0001.05,0001.39,0001.10,0001.45,0001.36,0001.27,19.5,25.7,11.1,07.6,0676.0,31.0
2021-08-20T08:44:00Z,00000200,00000000,0002.34,0001.80,0001.12,-000.24,0000.32,0000.25,0000.86,0000.80,0000.32,19.5,25.7,11.1,07.6,0676.0,31.0
2021-08-20T08:45:00Z,00000200,00000000,0001.97,0001.32,0000.88,0000.53,-000.01,0000.11,0000.57,0000.32,0000.24,19.5,25.7,11.2,07.6,0676.1,31.1
2021-08-20T08:46:00Z,00000200,00000000,0001.55,0001.49,0000.93,0000.54,0000.28,0000.30,0000.14,0000.45,0000.59,19.5,25.7,11.3,07.7,0676.1,31.0
2021-08-20T08:47:00Z,00000200,00000000,0001.02,0001.51,0001.33,0000.14,0000.14,0000.52,0000.49,0000.31,0000.21,19.5,25.7,11.4,07.8,0676.1,31.0
2021-08-20T08:48:00Z,00000200,00000000,0001.93,0001.55,0000.85,0000.40,0000.07,0000.16,0000.59,0000.79,0000.35,19.5,25.7,11.4,07.8,0676.1,31.0
2021-08-20T08:49:00Z,00000200,00000000,0001.20,0001.10,0000.57,0000.17,0000.27,-000.30,0000.23,0000.22,0000.18,19.5,25.7,11.4,07.8,0676.1,31.1
2021-08-20T08:50:00Z,00000200,00000000,0001.93,0001.40,0000.79,0000.33,-000.00,-000.04,0000.41,0000.38,0000.22,19.5,25.7,11.4,07.8,0676.1,31.1
2021-08-20T08:51:00Z,00000200,00000000,0001.47,0001.15,0000.71,0000.78,0000.08,0000.07,0000.71,0000.28,0000.71,19.5,25.7,11.4,07.8,0676.1,31.1
2021-08-20T08:52:00Z,00000200,00000000,0002.31,0001.53,0000.83,0000.42,0000.38,0000.05,0000.18,0000.37,-000.24,19.5,25.7,11.4,07.8,0676.1,31.1
2021-08-20T08:53:00Z,00000200,00000000,0002.49,0001.10,0000.84,0000.17,0000.22,0000.24,0000.91,0000.71,0000.73,19.5,25.7,11.5,07.9,0676.1,31.1
2021-08-20T08:54:00Z,00000200,00000000,0002.80,0001.39,0001.01,0000.50,0000.44,0000.54,0000.16,0000.44,-000.16,19.5,25.7,11.4,07.8,0676.1,31.1
2021-08-20T08:55:00Z,00000200,00000000,0002.17,0001.32,0000.65,0000.55,0000.57,0000.20,0000.24,0000.03,0000.57,19.5,25.7,11.5,07.8,0676.1,31.1
2021-08-20T08:56:00Z,00000200,00000000,0001.89,0001.37,0000.89,0000.65,0000.35,-000.04,0000.27,0000.29,0000.36,19.5,25.7,11.5,07.9,0676.1,31.1
2021-08-20T08:57:00Z,00000200,40000000,,,,,,,0000.39,0000.28,0000.28,19.5,25.8,11.9,08.1,0676.0,31.1
2021-08-20T08:58:00Z,00000200,60000000,,,,,,,-000.15,-000.15,-000.14,19.3,25.9,11.4,07.6,0675.1,31.1
2021-08-20T08:59:00Z,00000200,20000000,,,,,,,0000.16,-000.25,-000.19,19.3,26.0,11.4,07.6,0675.1,31.1
